Weather in Sosny

Russia / Moscow Oblast     55°43′54″N   37°03′29″E
temp.,
°C
wind,
m/s
gust,
m/s
humid.,
%
clouds,
%
prec.,
mm/h
press.,
hPa
HPBL,
m
6 march, sat
sat600:00−9wnw22890 0.0 101522
03:00−10nw23900 0.0 101626
06:00−11nw23940 0.0 101662
09:00−9wnw25900 0.0 1017220
12:00−5wnw467433 0.0 10171014
15:00−5wnw466967 0.3 10161205
18:00−7w238196 0.1 101580
21:00−9sw379048 0.1 1014129
7 march, sun
sun700:00−9sw4108947 0.0 1012267
03:00−7sw6138374 0.0 1008645
06:00−6sw71484100 0.0 1003804
09:00−5sw81591100 0.3 9981048
12:00−3sw81590100 1.1 9921205
15:00−3nw81387100 4.1 9911142
18:00−6wnw71569100 1.3 9941389
21:00−6wsw5138081 1.3 996950
8 march, mon
mon800:00−7wsw5138977 0.0 994745
03:00−7w269688 0.4 994220
06:00−9nw3794100 0.1 995264
09:00−9wnw5117887 0.1 997669
12:00−8wnw6108167 0.0 1000909
15:00−6wnw698283 0.2 10021088
18:00−7nnw5988100 0.4 1004812
21:00−10nw4109195 0.4 1008565
9 march, tue
tue900:00−12nw4109278 0.0 1010412
03:00−14nw399483 0.1 1012424
06:00−16nw3894100 0.0 1014374
09:00−16nw488998 0.1 1016457
12:00−13nw468189 0.0 1017581
15:00−10wnw357686 0.0 1018774
18:00−12wnw128789 0.0 101729
21:00−12sse229694 0.1 101752
10 march, wed
wed1000:00−11e2495100 1.1 1016164
03:00−13ene2497100 1.3 1016107
06:00−15ene2496100 0.1 1017163
09:00−15e2393100 0.3 1017182
12:00−11ese2389100 0.3 1017338
15:00−10ese3489100 0.5 1016396
18:00−11ese359497 0.3 1015259
21:00−11se369698 0.6 1014191